星链-35466(STARLINK-35466)

导读

STARLINK-35466是美国SpaceX星链互联网卫星星座的一员,于2025年11月15日发射入轨。星链计划旨在构建全球卫星互联网,为全球偏远地区、海洋、空中等区域提供高速互联网接入服务。该卫星延续星链标准设计,搭载星链通信载荷,将和其他星链卫星组网,进一步完善星座全球覆盖能力,提升网络服务性能。

基本信息
目录编号:
66457
目录名称:
STARLINK-35466
国际标识:
2025-262B
轨道中心:
EARTH
卫星名称:
星链-35466
卫星全名:
星链-35466(STARLINK-35466)
卫星状态:
在轨 (已飞行210 天)
发射日期:
2025-11-15 UTC
国别 :
美国 (US)
星等 :
--
轨道信息
数据来源 国际轨道数据
星历时间: 2026-06-11T12:32:46+0800
2天前
查看轨道信息
半长轴: 6861.166km
偏心率: 0.0000469
轨道倾角: 43.006°
近地点辐角 249.550°
升交点赤经 128.342°
平近点角 110.530°
近地点: 482.707km
远地点: 483.351km
周期: 94.266分钟
每日圈数: 15.27587
详细信息
固有亮度:
5
最大亮度:
2.5
卫星平台:
Starlink V1.0
覆盖范围:
全球
运营商:
太空探索技术公司
运营商所在国:
美国
制造商(研发单位):
太空探索技术公司
制造商所在国:
美国
使用方式:
暂无
卫星简介
Starlink 计划是 SpaceX 推出的全球卫星互联网项目,通过发射低轨道卫星,为全球尤其是偏远地区提供高速、低延迟的互联网服务。自 2019 年起,Starlink 已部署数千颗卫星,旨在缩小全球数字鸿沟,推动互联网普及。该项目还为军事、航空等行业提供通信支持,带来广泛经济效益。
2D轨道图
3D轨道图
轨道高度分析图
轨道倾角分析图
轨道综合分析图
查看轨道综合分析图